Wind_Speed
17 19 18 17 18 20 23 26 31 31 33 34 35 35 33 30 28 28 28 28 28 28 29 31 34 37 40 39 38 38 39 38 37 35 34 34 34 34 35 35 36 37 38 41
15 16 15 14 15 16 18 22 26 28 29 30 31 29 26 23 20 17 16 15 15 17 20 25 29 32 35 35 36 35 34 33 31 31 31 31 32 33 34 35 36 37 41 43
13 13 11 10 10 13 16 20 24 26 27 27 27 25 22 18 15 10 5 1 5 10 16 22 26 29 31 31 30 28 27 27 26 26 27 29 31 33 33 34 37 40 42 44
10 10 8 5 7 12 15 18 21 24 26 26 24 23 22 19 16 14 12 10 12 15 18 22 24 25 25 24 23 22 21 22 23 25 27 29 30 30 33 36 38 41 43 44
8 7 5 4 7 11 14 17 19 21 23 24 24 23 20 18 18 17 17 17 17 18 20 20 21 21 20 19 19 19 20 21 23 26 26 27 29 32 35 37 39 41 42 43
8 7 5 3 6 10 13 15 18 19 21 22 22 22 20 18 17 17 17 18 18 18 18 18 18 17 16 16 17 18 20 22 25 26 27 28 31 33 35 36 38 39 41 44
8 7 5 4 6 9 11 14 16 17 18 19 20 20 19 17 16 16 15 16 16 15 15 15 14 13 13 14 16 18 19 21 23 24 26 27 29 31 32 34 37 40 43 45
9 8 6 6 6 8 10 13 14 15 16 17 17 17 16 15 13 12 11 10 10 11 10 10 11 11 11 13 15 16 17 18 20 21 23 25 27 29 32 35 38 41 43 45
10 10 8 8 8 8 9 11 13 14 15 15 15 14 14 13 12 10 8 7 6 6 7 7 7 8 9 10 11 12 13 14 17 19 21 24 28 31 34 37 39 41 43 45
12 12 11 11 11 11 11 11 11 12 13 13 12 12 11 11 10 8 7 6 6 5 5 4 3 2 3 4 6 8 11 13 16 20 23 27 30 33 35 37 39 41 43 44
16 15 14 14 14 13 12 11 11 11 11 11 10 10 9 8 7 5 5 4 4 3 3 2 1 1 3 5 8 10 13 16 19 23 26 29 31 33 35 37 39 40 42 45
18 17 16 16 16 15 14 12 11 11 11 10 9 9 8 7 5 3 2 1 1 1 0 1 2 3 6 8 10 13 16 20 23 25 28 30 32 34 36 37 38 41 45 49
19 18 18 17 17 16 15 13 12 11 11 10 9 9 8 7 5 3 2 1 1 1 2 3 5 7 9 12 15 18 20 23 25 27 28 30 32 33 35 37 41 45 49 54
19 19 18 18 17 16 15 14 13 12 11 10 10 9 8 7 6 4 3 3 3 4 5 7 9 11 14 16 19 21 22 24 26 28 29 30 31 33 37 41 45 50 55 59
19 19 18 18 17 16 15 14 13 13 12 11 11 10 8 7 5 4 4 4 5 7 9 11 13 16 18 19 21 22 24 25 27 28 29 30 33 37 41 46 50 55 60 65
19 18 18 18 18 17 16 15 15 14 13 12 12 11 9 7 6 6 6 7 9 11 13 15 17 18 20 21 22 24 25 26 26 28 30 33 37 41 46 51 55 61 66 71
18 18 18 19 18 17 16 16 16 15 13 12 12 11 10 9 8 9 9 11 12 14 16 18 19 20 21 22 23 24 25 25 27 29 32 36 41 45 50 55 60 66 71 75
18 18 18 19 18 18 16 15 15 14 13 12 12 11 10 10 10 11 12 14 16 17 18 19 20 21 22 23 23 24 25 26 29 32 35 40 45 49 54 59 65 70 74 75
17 17 18 18 18 18 17 16 15 14 14 13 12 12 12 12 13 13 15 16 18 18 19 20 21 22 22 23 23 24 26 28 31 34 39 44 48 53 58 64 68 71 71 67
17 17 17 17 17 17 16 16 15 15 15 14 15 15 15 14 15 16 17 18 19 19 20 21 22 22 23 23 24 25 27 30 33 38 42 46 51 56 61 65 67 66 62 53
16 16 16 16 16 16 16 17 17 17 17 16 16 16 16 16 17 17 18 19 19 20 21 22 22 23 23 23 25 26 29 32 36 40 44 49 54 58 62 63 62 58 50 39
16 16 17 17 17 17 17 18 18 18 18 17 17 17 17 17 18 18 19 19 20 21 21 22 23 23 23 24 26 28 30 34 38 42 46 51 55 58 60 59 55 48 38 28
18 18 18 19 19 19 19 19 19 19 19 19 19 19 19 19 19 19 19 20 20 21 21 22 23 24 24 25 27 30 32 36 40 44 48 52 55 57 56 53 46 38 29 21
18 18 19 20 20 20 21 21 21 21 21 21 20 20 19 19 19 20 20 20 21 22 22 23 24 24 25 26 29 31 34 38 42 46 49 52 54 55 52 46 39 31 23 16
19 19 19 20 21 22 22 22 22 22 21 21 21 20 20 20 20 21 21 21 22 22 23 24 25 25 26 28 30 33 36 39 43 46 50 52 53 52 47 40 33 25 18 14
23 22 22 21 22 22 22 22 22 22 22 22 21 21 21 21 22 22 22 23 23 24 24 25 25 26 27 29 31 34 37 40 44 47 50 52 52 48 42 35 27 20 15 12
28 27 26 25 25 24 24 24 24 24 23 23 23 23 23 23 23 23 24 24 24 25 25 25 25 25 27 29 32 35 38 41 45 48 51 51 49 43 36 28 21 16 14 12
Wind_Direction
272 279 286 295 302 310 316 322 324 328 326 325 323 320 315 309 300 288 278 272 262 250 240 231 222 213 206 205 208 213 219 224 230 236 242 248 255 260 264 270 276 281 285 287
271 277 288 300 311 322 328 332 334 335 335 334 334 337 334 328 320 305 288 270 254 237 224 213 205 199 196 198 203 210 216 223 230 237 244 251 256 260 267 272 277 282 285 286
266 277 291 305 324 341 345 348 348 347 347 348 349 355 360 0 2 3 359 283 202 190 187 185 183 185 188 193 199 207 214 223 230 238 245 251 256 263 270 275 279 282 284 286
260 273 287 316 352 4 4 1 1 2 4 4 5 10 19 27 35 47 68 95 121 141 153 161 167 173 179 186 194 203 212 221 228 237 246 251 259 267 273 276 278 282 286 288
254 261 272 320 1 8 8 6 6 8 12 15 16 19 29 40 55 66 81 96 111 125 136 146 155 163 171 181 191 200 212 223 231 239 246 256 264 269 274 278 282 285 288 290
245 246 263 329 2 5 5 7 9 11 12 16 17 19 29 41 55 69 84 95 106 116 125 134 143 153 165 177 190 204 215 225 235 244 252 261 267 274 279 283 286 289 290 292
241 248 270 314 347 357 1 3 5 11 14 15 19 21 25 35 50 66 80 92 102 111 120 129 139 152 173 193 207 215 225 235 244 255 265 272 278 282 286 288 290 291 293 294
243 254 272 294 321 339 349 354 1 6 10 14 16 18 23 34 45 60 71 86 101 116 130 142 154 171 193 210 221 231 242 254 265 273 278 282 285 288 290 291 292 294 296 297
245 255 268 284 299 317 330 343 353 360 4 8 12 16 22 29 37 46 59 75 94 117 136 156 176 195 212 224 238 253 263 271 277 282 285 288 290 291 292 294 295 297 299 300
248 256 267 278 288 297 309 322 335 345 352 357 2 7 12 21 31 38 49 66 83 90 100 115 141 184 220 246 262 271 278 282 285 288 290 291 293 294 296 297 299 301 302 304
251 259 267 274 280 286 292 302 315 328 340 346 350 355 358 360 8 21 32 53 74 80 80 81 50 280 271 275 279 282 285 287 290 292 294 296 297 299 300 301 303 304 306 307
254 260 266 272 276 278 281 287 297 308 320 329 333 338 341 343 343 351 3 29 62 77 336 295 289 286 288 290 290 291 293 295 296 298 299 300 301 303 304 306 307 308 309 310
253 258 263 268 270 271 272 277 285 294 303 313 317 320 321 323 322 318 306 284 285 294 290 292 296 297 297 297 298 298 299 300 301 302 303 305 306 307 309 310 311 312 312 311
252 256 260 263 264 265 265 267 274 282 290 298 303 306 308 306 301 286 275 266 272 284 293 297 300 302 302 302 302 302 302 303 304 306 308 309 310 311 312 313 313 314 313 313
251 254 255 256 257 259 259 260 265 271 277 283 292 295 292 290 286 274 269 273 283 291 298 301 303 304 304 304 303 304 305 306 308 310 311 313 314 315 316 316 316 316 315 314
247 247 248 250 252 254 256 256 260 265 270 276 280 282 277 274 269 265 275 286 293 297 300 302 303 304 304 304 305 306 308 310 312 313 315 316 317 318 318 318 318 317 316 316
244 244 245 246 248 250 252 254 258 262 266 270 269 268 265 262 263 268 281 290 294 297 300 301 303 304 304 305 306 308 311 313 315 316 318 319 320 320 320 320 319 318 318 317
243 243 244 245 246 246 247 250 253 255 258 259 259 256 256 261 266 275 285 292 295 298 299 300 301 302 303 305 308 310 313 315 318 319 321 322 322 322 322 322 321 320 320 319
240 240 241 242 242 242 242 244 245 247 250 251 249 250 256 263 270 280 288 292 294 296 297 298 300 301 304 307 310 313 316 318 320 322 323 324 324 324 324 324 323 323 323 323
235 235 236 238 239 238 237 236 238 240 242 246 250 254 260 267 275 283 288 291 294 295 297 299 301 303 305 308 311 315 318 320 322 324 325 326 326 326 326 326 326 326 328 329
234 233 234 235 233 231 230 231 234 237 242 247 252 258 264 271 278 284 287 290 293 295 297 299 301 304 307 309 312 316 319 322 324 326 327 328 328 329 329 329 329 331 333 337
234 234 233 232 231 230 232 234 236 239 244 250 256 262 268 274 279 283 287 290 292 294 297 300 303 305 307 309 313 316 319 323 325 327 328 329 330 331 331 331 332 335 339 345
237 235 234 233 235 236 237 239 241 244 249 254 259 265 270 275 279 283 286 289 292 294 297 300 303 305 307 309 313 316 320 324 326 328 330 331 332 332 332 333 334 337 341 347
245 242 240 239 240 241 243 245 247 250 254 257 262 266 271 275 279 282 286 289 291 294 297 300 303 304 306 309 313 318 322 325 328 330 331 332 332 332 332 333 334 336 339 344
255 253 251 248 246 246 248 249 251 253 256 259 262 266 270 274 278 282 285 288 291 293 296 299 301 303 306 310 314 319 323 326 329 331 332 332 332 331 331 332 332 334 337 340
258 257 256 255 254 252 251 251 252 253 255 258 260 264 268 272 276 280 283 287 290 292 295 298 300 303 307 312 317 321 325 328 330 332 332 332 331 330 329 329 330 331 334 336
258 258 258 257 257 257 255 254 254 254 255 256 258 261 265 269 274 278 282 286 288 292 295 297 300 304 309 314 319 323 326 328 331 332 333 332 330 329 327 327 328 328 329 329
Height
5626 5625 5625 5625 5623 5620 5616 5612 5606 5601 5593 5584 5575 5565 5556 5547 5541 5537 5535 5534 5535 5538 5543 5548 5556 5566 5578 5591 5602 5611 5619 5627 5634 5640 5645 5649 5651 5653 5654 5655 5654 5653 5651 5649
5622 5622 5622 5621 5619 5617 5613 5609 5603 5596 5589 5581 5571 5561 5551 5544 5537 5532 5529 5528 5530 5533 5538 5545 5554 5565 5577 5588 5598 5607 5615 5623 5630 5635 5639 5642 5644 5646 5647 5647 5646 5644 5642 5640
5620 5619 5619 5619 5617 5614 5611 5606 5601 5594 5588 5579 5570 5561 5552 5545 5538 5533 5530 5529 5530 5534 5540 5547 5557 5567 5577 5587 5596 5605 5613 5620 5626 5630 5633 5636 5638 5639 5639 5639 5637 5636 5633 5630
5617 5618 5617 5619 5615 5612 5609 5605 5600 5594 5587 5580 5573 5565 5558 5551 5544 5539 5537 5536 5537 5541 5547 5554 5562 5571 5580 5589 5597 5604 5611 5616 5621 5626 5629 5631 5632 5632 5631 5630 5628 5626 5623 5619
5615 5615 5615 5615 5612 5610 5608 5604 5600 5595 5589 5583 5577 5570 5564 5558 5553 5549 5547 5547 5548 5551 5556 5562 5569 5576 5584 5591 5597 5603 5609 5614 5617 5620 5622 5624 5625 5625 5623 5621 5619 5616 5613 5609
5613 5613 5614 5614 5611 5608 5608 5605 5601 5596 5591 5586 5581 5577 5572 5566 5562 5559 5557 5557 5558 5561 5565 5570 5575 5581 5587 5592 5598 5602 5607 5610 5613 5615 5617 5617 5617 5617 5615 5613 5610 5607 5603 5598
5611 5611 5612 5612 5609 5608 5608 5606 5601 5597 5594 5589 5585 5582 5578 5574 5570 5568 5567 5567 5568 5570 5573 5576 5581 5585 5589 5593 5597 5601 5604 5607 5609 5611 5611 5611 5611 5609 5607 5604 5601 5598 5593 5588
5609 5610 5612 5609 5608 5608 5607 5604 5601 5598 5595 5592 5589 5585 5582 5580 5577 5576 5575 5575 5575 5576 5578 5581 5584 5588 5591 5594 5597 5599 5602 5604 5605 5606 5606 5605 5604 5602 5599 5596 5592 5588 5583 5577
5608 5610 5609 5607 5606 5606 5604 5603 5601 5599 5597 5594 5591 5589 5586 5584 5582 5581 5580 5580 5581 5582 5583 5585 5588 5590 5593 5595 5597 5599 5600 5601 5602 5601 5601 5599 5597 5594 5591 5587 5583 5577 5572 5566
5604 5605 5605 5605 5604 5604 5603 5602 5600 5599 5597 5595 5593 5591 5589 5587 5586 5585 5584 5584 5585 5585 5586 5588 5590 5592 5593 5595 5596 5597 5598 5598 5598 5597 5595 5593 5590 5586 5582 5577 5572 5567 5561 5555
5600 5602 5602 5602 5601 5601 5600 5600 5599 5598 5597 5595 5593 5592 5590 5589 5588 5587 5587 5587 5587 5588 5588 5589 5591 5592 5593 5594 5595 5595 5594 5594 5592 5591 5588 5585 5581 5577 5572 5568 5562 5557 5550 5544
5597 5598 5598 5599 5598 5598 5598 5597 5597 5596 5595 5594 5593 5592 5591 5590 5589 5588 5588 5588 5588 5589 5589 5590 5591 5591 5592 5592 5592 5591 5590 5588 5586 5583 5580 5576 5572 5568 5563 5558 5552 5546 5540 5532
5592 5593 5594 5594 5594 5594 5594 5594 5594 5594 5593 5592 5592 5591 5590 5589 5589 5588 5588 5588 5588 5589 5589 5589 5590 5589 5589 5588 5587 5586 5584 5581 5579 5575 5572 5568 5564 5560 5554 5549 5543 5536 5528 5519
5587 5588 5589 5590 5590 5590 5590 5591 5591 5591 5591 5590 5590 5589 5589 5588 5588 5587 5587 5587 5588 5588 5588 5588 5587 5586 5585 5584 5582 5580 5577 5575 5572 5568 5565 5561 5556 5551 5546 5540 5533 5524 5515 5506
5582 5583 5584 5585 5585 5586 5586 5587 5587 5588 5588 5588 5587 5587 5587 5587 5586 5586 5586 5586 5586 5586 5586 5585 5584 5582 5580 5578 5576 5574 5571 5568 5565 5561 5557 5553 5548 5543 5536 5529 5521 5511 5501 5490
5575 5577 5578 5580 5581 5582 5582 5583 5584 5584 5585 5585 5585 5584 5584 5584 5584 5584 5584 5584 5584 5583 5582 5581 5579 5577 5575 5573 5571 5568 5565 5562 5558 5555 5550 5546 5540 5534 5526 5518 5508 5498 5486 5474
5570 5571 5573 5575 5576 5577 5578 5579 5580 5580 5581 5581 5581 5581 5582 5582 5582 5582 5582 5581 5581 5579 5578 5576 5574 5572 5570 5568 5565 5562 5559 5556 5552 5548 5543 5538 5531 5524 5515 5506 5495 5483 5469 5455
5564 5566 5568 5569 5571 5572 5573 5574 5575 5576 5577 5577 5578 5578 5578 5579 5579 5579 5579 5578 5577 5575 5573 5572 5570 5567 5565 5563 5560 5557 5553 5550 5545 5541 5535 5529 5522 5514 5504 5493 5481 5467 5451 5436
5559 5561 5562 5564 5565 5567 5568 5570 5571 5572 5573 5574 5574 5575 5575 5576 5576 5575 5575 5574 5572 5571 5569 5567 5565 5562 5560 5557 5554 5551 5547 5543 5539 5533 5527 5520 5512 5503 5492 5480 5466 5451 5435 5421
5554 5556 5557 5559 5560 5562 5563 5565 5567 5568 5569 5570 5570 5571 5572 5572 5572 5571 5570 5569 5568 5566 5564 5562 5560 5557 5555 5552 5549 5545 5541 5537 5532 5526 5519 5511 5502 5492 5480 5466 5452 5437 5423 5410
5550 5551 5553 5554 5556 5557 5559 5561 5562 5563 5564 5565 5566 5567 5567 5567 5567 5566 5565 5564 5562 5560 5559 5556 5554 5552 5549 5546 5543 5539 5535 5530 5524 5518 5510 5502 5492 5480 5468 5454 5440 5427 5415 5404
5546 5547 5548 5550 5551 5553 5554 5556 5557 5559 5560 5561 5561 5562 5562 5562 5561 5561 5560 5558 5557 5555 5553 5551 5549 5546 5543 5540 5537 5533 5528 5523 5517 5510 5502 5492 5482 5470 5458 5445 5432 5421 5411 5404
5541 5543 5544 5545 5547 5548 5549 5551 5552 5554 5555 5556 5556 5557 5557 5556 5556 5555 5554 5553 5551 5549 5547 5545 5543 5540 5537 5534 5530 5526 5521 5516 5509 5501 5493 5483 5473 5461 5450 5438 5427 5418 5410 5405
5537 5538 5539 5540 5541 5543 5544 5545 5547 5548 5549 5550 5551 5551 5551 5550 5550 5549 5548 5546 5545 5543 5541 5539 5537 5534 5531 5528 5524 5519 5514 5508 5501 5493 5484 5474 5464 5453 5442 5432 5423 5415 5409 5405
5531 5532 5533 5535 5536 5537 5538 5539 5541 5542 5543 5544 5544 5544 5544 5544 5544 5543 5542 5540 5539 5537 5535 5533 5530 5528 5525 5521 5517 5512 5507 5500 5493 5485 5476 5466 5456 5446 5436 5427 5419 5413 5408 5404
5525 5526 5527 5528 5529 5530 5531 5533 5534 5535 5536 5537 5537 5538 5538 5537 5537 5536 5535 5534 5533 5531 5529 5527 5524 5521 5518 5514 5510 5505 5499 5492 5485 5476 5467 5458 5448 5438 5429 5422 5415 5410 5407 5404
5517 5519 5520 5521 5522 5523 5524 5525 5527 5528 5528 5529 5530 5530 5530 5530 5530 5529 5528 5527 5526 5524 5522 5520 5517 5515 5511 5508 5503 5498 5492 5485 5477 5469 5459 5450 5440 5431 5423 5417 5412 5408 5405 5403